Location: *
(55.5817°S, 142.4781°W)
Time: 05:51:52
(UTC+00:00)

IGS 5A - Pass Details

Date: 29 April 2025
Orbit: 559 x 565 km, 97.4° (Epoch: 31 January)

Event Time Altitude Azimuth Distance (km) Brightness Sun altitude
Rises 15:39:45 0° 347° (NNW) 2,762 6.9 -10.3°
Reaches altitude 10° 15:42:06 10° 335° (NNW) 1,874 5.9 -10.0°
Maximum altitude 15:45:39 29° 274° (W) 1,074 4.3 -9.5°
Drops below altitude 10° 15:49:16 10° 212° (SSW) 1,897 5.6 -9.0°
Sets 15:51:40 0° 201° (SSW) 2,803 6.6 -8.7°
